Flag for Canada Weather past 2 weeks in Grande Prairie, Alberta, Canada

Now
61 °F

Partly sunny.


Feels Like: 61 °F
Forecast: 47 / 73 °F
Wind: 5 mph from Northeast

Location: Grande Prairie

Current Time: Jun 3, 2015 at 11:47:58 AM

Latest Report: Jun 3, 2015 at 11:00 AM


Visibility: 20 mi

Pressure: 29.85 "Hg

Humidity: 68%

Dew point: 50 °F

Location of Grande PrairieLocation

Historic Weather in Grande Prairie — Graph

°F

Grande Prairie temperature yesterday

Maximum temperature yesterday: 70 °F (at 5:00 PM)
Minimum temperature yesterday: 43 °F (at 12:00 AM)
Average temperature yesterday: 57 °F

Past Weeks' High & Low Weather Summary

 TemperatureHumidityPressure
High81 °F (May 23, 3:00 PM)100% (May 31, 1:00 AM)30.40 "Hg (May 31, 1:00 AM)
Low39 °F (May 29, 4:00 AM)15% (May 24, 3:00 PM)29.78 "Hg (Jun 2, 7:00 PM)
Average58 °F56%30.02 "Hg
* Reported May 19 11:00 AM — Jun 3 11:00 AM, Grande Prairie, Weather by CustomWeather, © 2015

Note: Actual official high and low records may vary slightly from our data, if they occured in-between our weather recording intervals... More about our weather records

Advertising

Grande Prairie weather history for previous 24 hours

 ConditionsComfort  
Time TempWeatherWind HumidityBarometerVisibility
11:00 AM
Wed, Jun 3
61 °FPartly sunny.5 mph68%29.85 "Hg20 mi
10:00 AM57 °FScattered clouds.3 mph77%29.86 "Hg20 mi
9:00 AM54 °FScattered clouds.No wind82%29.85 "Hg20 mi
8:00 AM52 °FScattered clouds.6 mph88%29.85 "Hg20 mi
7:00 AM48 °FPartly sunny.5 mph94%29.85 "Hg20 mi
6:00 AM46 °FPassing clouds.6 mph93%29.84 "Hg20 mi
5:00 AM46 °FPassing clouds.8 mph93%29.83 "Hg25 mi
4:00 AM46 °FPassing clouds.8 mph93%29.82 "Hg25 mi
3:00 AM48 °FPassing clouds.8 mph87%29.82 "Hg25 mi
2:00 AM50 °FPassing clouds.9 mph88%29.82 "Hg25 mi
1:00 AM52 °FPassing clouds.8 mph82%29.82 "Hg25 mi
12:00 AM54 °FPassing clouds.10 mph82%29.81 "Hg25 mi
11:00 PM
Tue, Jun 2
59 °FScattered clouds.8 mph68%29.80 "Hg25 mi
10:00 PM63 °FPartly sunny.10 mph59%29.79 "Hg20 mi
9:00 PM66 °FPartly sunny.13 mph52%29.79 "Hg20 mi
8:00 PM68 °FPartly sunny.14 mph49%29.78 "Hg20 mi
7:00 PM70 °FPartly sunny.10 mph46%29.78 "Hg20 mi
6:00 PM70 °FScattered clouds.7 mph46%29.79 "Hg20 mi
5:00 PM70 °FPartly sunny.8 mph50%29.79 "Hg20 mi
4:00 PM68 °FPartly sunny.7 mph49%29.81 "Hg25 mi
3:00 PM66 °FScattered clouds.9 mph52%29.83 "Hg25 mi
2:00 PM64 °FScattered clouds.7 mph52%29.85 "Hg20 mi
1:00 PM63 °FScattered clouds.10 mph56%29.87 "Hg25 mi
12:00 PM61 °FScattered clouds.10 mph55%29.89 "Hg20 mi
11:00 AM57 °FScattered clouds.10 mph63%29.90 "Hg25 mi
Weather by CustomWeather, © 2015

See weather overviewHow to use our weather pages